Location: NJAA Observatory
(40.6819°N, 74.8979°W)
Time: 08:27:51
(UTC-05:00)

S-56A Canister/Altair - Visible Passes

Search period start: 21 December 2014 00:00
Search period end: 31 December 2014 00:00
Orbit: 634 x 2502 km, 38.9° (Epoch: 19 December)

Date Brightness Start Highest point End Pass type
(mag) Time Alt. Az. Time Alt. Az. Time Alt. Az.
21 Dec 7.7 04:45:16 61° SE 04:45:16 61° SE 04:49:10 10° ESE visible
21 Dec 8.6 06:43:47 10° W 06:47:47 27° SSW 06:51:32 10° SSE visible
22 Dec 8.9 04:14:48 33° ESE 04:14:48 33° ESE 04:17:15 10° ESE visible
22 Dec 8.4 06:12:15 14° W 06:15:48 32° SSW 06:19:44 10° SE visible
23 Dec 10.0 03:44:20 17° E 03:44:20 17° E 03:45:21 10° E visible
23 Dec 8.1 05:41:48 26° WSW 05:43:48 37° SSW 05:47:56 10° SE visible
24 Dec 8.0 05:11:21 42° SW 05:11:47 43° SSW 05:16:08 10° SE visible
25 Dec 8.3 04:40:55 41° SSE 04:40:55 41° SSE 04:44:19 10° SE visible
25 Dec 9.5 06:40:33 10° WSW 06:42:25 12° SW 06:44:12 10° SSW visible
26 Dec 9.3 04:10:30 25° SE 04:10:30 25° SE 04:12:30 10° ESE visible
26 Dec 9.2 06:07:58 12° WSW 06:10:26 16° SW 06:13:10 10° S visible
26 Dec 11.5 21:11:58 10° S 21:12:28 11° S 21:12:28 11° S visible
27 Dec 10.2 03:40:07 14° ESE 03:40:07 14° ESE 03:40:40 10° ESE visible
27 Dec 9.0 05:37:35 19° SW 05:38:27 20° SW 05:41:52 10° S visible
27 Dec 11.2 20:39:30 10° S 20:42:12 15° S 20:42:12 15° S visible
28 Dec 9.0 05:07:13 24° SSW 05:07:13 24° SSW 05:10:24 10° SSE visible
28 Dec 11.1 20:07:11 10° S 20:11:57 18° SSE 20:11:57 18° SSE visible
28 Dec 11.5 22:08:56 10° SW 22:09:26 11° SW 22:09:26 11° SW visible
29 Dec 9.3 04:36:52 21° S 04:36:52 21° S 04:38:51 10° SSE visible
29 Dec 11.0 19:35:02 10° S 19:41:44 18° SSE 19:41:44 18° SSE visible
29 Dec 11.2 21:35:56 10° SW 21:39:13 19° SSW 21:39:13 19° SSW visible
30 Dec 10.0 04:06:33 14° SSE 04:06:33 14° SSE 04:07:14 10° SSE visible
30 Dec 11.0 19:03:08 10° SSE 19:10:55 17° SE 19:11:31 17° SE visible
30 Dec 10.9 21:03:00 10° SSW 21:09:00 27° SSW 21:09:00 27° SSW visible
